Weather in Miyazaki

Japan     38°38′11″N   140°42′04″E
temp.,
°C
wind,
m/s
gust,
m/s
humid.,
%
clouds,
%
prec.,
mm/h
press.,
hPa
HPBL,
m
4 july, mon
mon400:00+19wnw3396100 4.6 101160
03:00+19wnw3495100 7.8 101079
06:00+19wnw2295100 7.8 1011121
09:00+25w23665 8.8 1010663
12:00+30w134913 0.1 10081940
15:00+28nw126519 1.2 1008928
18:00+24nw01881 2.6 100954
21:00+20wnw11951 2.8 101019
5 july, tue
tue500:00+20wnw22964 0.1 101040
03:00+20wnw2296100 0.2 101034
06:00+21wnw2293100 0.0 101198
09:00+27ssw1164100 0.1 1010848
12:00+27se2168100 0.8 10091056
15:00+26sse2380100 2.9 1008774
18:00+23e2393100 1.0 1010240
21:00+20ne119999 1.0 101130
6 july, wed
wed600:00+20ene129995 0.0 1011107
03:00+20ene129896 0.1 101085
06:00+20e129794 0.1 1011153
09:00+22e129199 0.1 1012333
12:00+25ese347582 0.2 10101006
15:00+24ese457998 0.6 10101031
18:00+22e369696 0.6 1010520
21:00+20ene26100100 1.3 1012452
7 july, thu
thu700:00+20ene2510093 0.4 1012322
03:00+20ene27100100 1.1 1011591
06:00+20e38100100 0.9 1013526
09:00+21e3796100 1.6 1013563
12:00+20e3898100 1.5 1013683
15:00+22ese369199 2.5 1012706
18:00+21ese369791 0.8 1012519
21:00+19e2510095 1.6 1013414
8 july, fri
fri800:00+18e2310099 0.4 1012260
03:00+18e1399100 0.6 1012158
06:00+18ese229695 0.1 1012248
09:00+20ese2386100 0.2 1011649
12:00+22se237484 0.1 1010829
15:00+24se3467100 0.1 10091025
18:00+20ese3484100 0.0 1010537
21:00+16ese019823 0.0 101113